[[{"header":{"parameterUnit":"m.s-1","parameterCategory":1,"la1":30.2991,"la2":30.254,"lo1":-89.0895,"lo2":-89.0444,"dy":0.0017,"dx":0.0017,"nx":28,"ny":28,"refTime":"2026-02-25T09:00:00:Z","depth":0,"parameterNumber":2,"parameterNumberName":"U-component_of_WINDS"},"data":[0,0,0,0,0,0,0,0,0,0,0,0,0,0,0,0,0,0,0,0,0,0,0,0,0,0,0,0,0,0,0,0,0,0,0,0,0,0,0,0,0,0,0,0,0,0,0,0,0,0,0,0,0,0,0,0,0,0,2.707,2.7071,0,2.7189,2.7191,2.7192,2.7166,2.7163,2.7161,2.7159,2.7287,2.7292,2.7298,0,0,0,0,0,0,0,0,0,0,0,0,0,2.6822,2.6827,2.707,2.7071,2.7073,2.7189,2.7191,2.7192,2.7166,2.7163,2.7161,2.7158,2.7285,2.7292,2.7298,0,0,0,0,0,0,0,0,0,0,0,0,0,2.6935,2.6828,2.7069,2.7073,2.7075,2.7189,2.7191,2.7193,2.7167,2.7163,2.716,2.7157,2.7283,2.7291,2.7299,2.7418,0,0,2.7324,2.7328,0,0,0,0,0,0,0,0,2.6928,2.6944,2.7071,2.7073,2.7075,2.7159,2.715,2.7269,2.7167,2.7132,2.7159,2.7155,2.7247,2.7258,2.7288,2.7424,2.743,2.7325,2.733,2.7334,2.7336,0,0,0,0,0,0,0,2.6921,2.6939,2.7117,2.7073,2.7076,2.707,2.7083,2.7173,2.7207,2.7135,2.7133,2.7147,2.7248,2.7281,2.7291,2.7431,2.7325,2.7332,2.7337,2.7341,2.767,2.7674,0,0,0,0,0,0,2.691,2.6932,2.7113,2.7121,2.6992,2.7078,2.7091,2.7136,2.7206,2.7214,2.715,2.7146,2.7268,2.7282,2.7296,2.7439,2.7334,2.7341,2.7346,2.7666,2.7671,2.7675,0,0,0,0,0,0,2.6905,2.6927,2.7108,2.7026,2.7049,2.7085,2.7135,2.714,2.7172,2.7218,2.7224,2.7177,2.7266,2.7284,2.7387,2.7443,2.7345,2.7353,2.7662,2.7668,2.7673,2.7728,0,0,0,0,0,0,2.6898,2.6925,2.697,2.7027,2.7053,2.7197,2.7139,2.7145,2.7186,2.7181,2.7245,2.7252,2.7265,2.7375,2.7395,2.7453,2.7359,2.7657,2.7664,2.7671,2.7721,2.7735,2.7746,0,0,0,0,0,2.689,2.6982,2.6972,2.6994,2.711,2.72,2.7215,2.7227,2.7191,2.7237,2.7265,2.725,2.7434,2.7386,2.7409,2.7469,2.7653,2.7662,2.767,2.7715,2.7732,2.7746,0,0,0,0,0,0,2.6933,2.699,2.698,2.7093,2.7142,2.7196,2.7254,2.7244,2.7305,2.7299,2.7311,2.7326,2.7431,2.7461,2.7406,2.7588,2.7539,2.7552,2.7565,2.7581,2.7593,2.7584,2.7366,0,0,0,0,0,2.6955,2.7022,2.7069,2.7164,2.7189,2.7217,2.7257,2.7261,2.7313,2.7334,2.7371,2.7423,2.7493,2.7538,2.7605,2.7725,2.7738,2.7778,2.779,2.78,2.7812,2.7877,2.7896,2.7703,2.7703,2.7703,0,0,2.7002,2.7042,2.7084,2.7174,2.7212,2.7283,2.7235,2.7312,2.7365,2.7347,2.7446,2.7475,2.7534,2.7646,2.7697,2.7674,2.7868,2.7811,2.7819,2.7825,2.7888,2.7906,2.7922,2.7709,2.7708,2.7707,0,0,2.7125,2.7161,2.7245,2.7283,2.7341,2.7359,2.7379,2.7434,2.7452,2.7551,2.7538,2.7602,2.7721,2.7764,2.7801,2.7938,2.7926,2.7959,2.8025,2.8089,2.8104,2.8117,2.8167,2.8184,2.7971,2.7971,2.7971,0,2.7178,2.7282,2.7289,2.7367,2.7407,2.7391,2.7476,2.7514,2.7592,2.762,2.7592,2.7741,2.778,2.7901,2.7934,2.7965,2.7988,2.7953,2.8101,2.8114,2.8127,2.8174,2.8193,2.7975,2.7974,2.7974,2.7974,0,2.7343,2.7416,2.7477,2.7549,2.7596,2.7678,2.7698,2.7745,2.7745,2.7766,2.7867,2.7912,2.7987,2.8016,2.8018,2.8138,2.8122,2.8097,2.8048,2.8149,2.8193,2.8212,2.798,2.7979,2.7978,2.7977,0,0,2.7498,2.7572,2.7594,2.7627,2.7689,2.7746,2.7826,2.7897,2.7938,2.7991,2.8059,2.816,2.8137,2.8179,2.8185,2.8241,2.8346,2.821,2.8211,2.8234,2.8482,2.85,2.852,2.8338,2.8341,2.8344,2.8477,0,2.7627,2.7767,2.7775,2.7902,2.797,2.7955,2.8025,2.8071,2.8093,2.8154,2.8178,2.8249,2.8214,2.8239,2.8293,2.8322,2.8396,2.8312,2.8403,2.8406,2.8389,2.8544,2.8564,2.8687,2.8494,2.8497,2.8499,0,2.7796,2.7852,2.7985,2.8037,2.8065,2.8128,2.8193,2.8252,2.8304,2.8316,2.8362,2.8359,2.8443,2.8389,2.8505,2.8448,2.8485,2.8505,2.851,2.8519,2.8459,2.8558,2.8726,2.8745,2.8526,2.8524,2.8522,0,2.7895,2.8005,2.8098,2.8127,2.8189,2.8233,2.8261,2.831,2.8352,2.841,2.8437,2.8504,2.8542,2.8594,2.861,2.857,2.8725,2.8674,2.8738,2.8738,2.8773,2.8771,2.895,2.8796,2.8796,2.8795,2.8795,0,2.8038,2.8121,2.8144,2.8202,2.8294,2.8303,2.8394,2.8419,2.8462,2.8526,2.8517,2.8577,2.8594,2.8658,2.8671,2.8765,2.8782,2.8794,2.8797,2.8795,2.8794,2.8821,2.8813,2.88,2.8799,2.8798,2.8797,0,2.8166,2.8184,2.8285,2.8335,2.8349,2.8415,2.8458,2.8514,2.8534,2.8614,2.8633,2.8665,2.8738,2.8759,2.8849,2.8857,2.8967,2.8962,2.8949,2.895,2.9013,2.9007,2.9217,2.9245,2.9072,2.9073,2.9075,0,2.8256,2.8318,2.8374,2.8415,2.8444,2.8511,2.8553,2.8564,2.8609,2.8672,2.872,2.8793,2.8851,2.897,2.9002,2.907,2.9066,2.9135,2.9077,2.9073,2.9068,2.9064,2.907,2.9146,2.9148,2.9149,2.9151,0,2.8414,2.842,2.848,2.8543,2.8593,2.8645,2.8693,2.8728,2.8746,2.8797,2.8871,2.8916,2.9006,2.9078,2.9146,2.9177,2.9168,2.9168,2.9187,2.9187,2.9177,2.9183,2.898,2.9164,2.9163,2.9162,2.9161,2.916,2.8526,2.8581,2.8628,2.8695,2.8733,2.8778,2.8833,2.8858,2.892,2.8993,2.8996,2.9077,2.9127,2.9217,2.9251,2.9315,2.9295,2.9322,2.9329,2.9336,2.9341,2.9165,2.9328,2.9327,2.9327,2.9327,2.9326,0,2.8684,2.8713,2.8775,2.8842,2.8895,2.8879,2.8932,2.8978,2.9049,2.9095,2.9152,2.9238,2.9307,2.9343,2.9413,2.9457,2.9454,2.9475,2.9472,2.9479,2.9355,2.9332,2.9476,2.9476,2.9476,2.9476,2.9475,2.9475,2.8772,2.8864,2.8875,2.8985,2.9014,2.9092,2.9123,2.9166,2.9203,2.9298,2.9355,2.9377,2.942,2.9492,2.9555,2.9564,2.959,2.9613,2.962,2.9503,2.9488,2.9474,2.9452,2.9618,2.9619,2.9738,2.974,2.974]},{"header":{"parameterUnit":"m.s-1","parameterCategory":1,"la1":30.2991,"la2":30.254,"lo1":-89.0895,"lo2":-89.0444,"dy":0.0017,"dx":0.0017,"nx":28,"ny":28,"refTime":"2026-02-25T09:00:00:Z","depth":0,"parameterNumber":3,"parameterNumberName":"V-component_of_WINDS"},"data":[0,0,0,0,0,0,0,0,0,0,0,0,0,0,0,0,0,0,0,0,0,0,0,0,0,0,0,0,0,0,0,0,0,0,0,0,0,0,0,0,0,0,0,0,0,0,0,0,0,0,0,0,0,0,0,0,0,0,5.1092,5.1093,0,5.1235,5.1237,5.1238,5.1213,5.121,5.1207,5.1205,5.1356,5.1362,5.1368,0,0,0,0,0,0,0,0,0,0,0,0,0,5.0801,5.0806,5.1092,5.1094,5.1095,5.1235,5.1237,5.1239,5.1213,5.121,5.1207,5.1204,5.1353,5.1361,5.1369,0,0,0,0,0,0,0,0,0,0,0,0,0,5.0934,5.0808,5.1092,5.1099,5.1101,5.1234,5.1237,5.1239,5.1214,5.121,5.1206,5.1202,5.1351,5.136,5.137,5.1505,0,0,5.1399,5.1403,0,0,0,0,0,0,0,0,5.0926,5.0945,5.1096,5.1099,5.1102,5.1202,5.1189,5.1328,5.1215,5.1171,5.1205,5.1201,5.1308,5.1321,5.1356,5.1512,5.1519,5.14,5.1406,5.141,5.1412,0,0,0,0,0,0,0,5.0917,5.0938,5.1149,5.1099,5.1102,5.1097,5.1112,5.1215,5.1259,5.1175,5.1173,5.119,5.1309,5.1347,5.1359,5.1521,5.1399,5.1408,5.1414,5.1418,5.1796,5.1801,0,0,0,0,0,0,5.0905,5.0931,5.1144,5.1153,5.1003,5.1105,5.1122,5.1174,5.1258,5.1267,5.1193,5.1188,5.1332,5.1348,5.1365,5.153,5.141,5.1419,5.1424,5.1792,5.1797,5.1802,0,0,0,0,0,0,5.0899,5.0924,5.1138,5.1042,5.1068,5.1114,5.1173,5.1178,5.1217,5.1272,5.128,5.1224,5.133,5.1351,5.147,5.1535,5.1423,5.1432,5.1787,5.1794,5.18,5.1861,0,0,0,0,0,0,5.0891,5.0922,5.0973,5.1043,5.1074,5.1241,5.1177,5.1184,5.1233,5.1228,5.1303,5.1312,5.1329,5.1456,5.148,5.1546,5.1439,5.1782,5.179,5.1798,5.1854,5.1869,5.1882,0,0,0,0,0,5.088,5.0985,5.0976,5.1002,5.1138,5.1245,5.1262,5.1278,5.1238,5.1291,5.1326,5.131,5.1523,5.1469,5.1495,5.1565,5.1778,5.1788,5.1797,5.1848,5.1866,5.1882,0,0,0,0,0,0,5.0924,5.0995,5.0985,5.1115,5.1174,5.124,5.1307,5.1297,5.1369,5.1362,5.1379,5.1397,5.1518,5.1553,5.1491,5.1701,5.1645,5.1661,5.1674,5.1693,5.1707,5.1697,5.1447,0,0,0,0,0,5.0948,5.1027,5.1085,5.1195,5.1225,5.1261,5.1308,5.1315,5.1377,5.1402,5.1446,5.1508,5.1589,5.1642,5.172,5.1858,5.1875,5.1919,5.1933,5.1944,5.1959,5.2036,5.2057,5.1834,5.1834,5.1834,0,0,5.1001,5.1049,5.1098,5.1205,5.1251,5.1335,5.1282,5.1372,5.1435,5.1416,5.1531,5.1566,5.1636,5.1766,5.1825,5.1799,5.2024,5.1957,5.1966,5.1974,5.2048,5.2069,5.2088,5.1841,5.1839,5.1838,0,0,5.1139,5.1182,5.1279,5.1326,5.1396,5.1419,5.1442,5.151,5.1532,5.1647,5.1636,5.171,5.1849,5.19,5.1944,5.2101,5.2089,5.2125,5.2201,5.2276,5.2294,5.231,5.2368,5.2388,5.2139,5.2139,5.2139,0,5.1196,5.1319,5.1331,5.1422,5.1471,5.1455,5.1555,5.16,5.1693,5.1727,5.1695,5.187,5.1916,5.2058,5.2096,5.2131,5.216,5.2119,5.229,5.2306,5.2321,5.2377,5.2398,5.2143,5.2143,5.2142,5.2142,0,5.1386,5.1472,5.1542,5.1631,5.1686,5.1782,5.1809,5.1864,5.1866,5.1892,5.2011,5.2066,5.2155,5.2188,5.2191,5.2331,5.2313,5.2285,5.223,5.2346,5.2399,5.242,5.2149,5.2147,5.2146,5.2145,0,0,5.1559,5.1651,5.1677,5.1717,5.1793,5.1861,5.1955,5.2041,5.2089,5.2152,5.2234,5.2351,5.2326,5.2376,5.2384,5.245,5.2573,5.2415,5.2417,5.2445,5.2734,5.2756,5.278,5.2564,5.2568,5.2572,5.2729,0,5.1706,5.1872,5.1885,5.2035,5.2116,5.2102,5.2184,5.2241,5.2268,5.2341,5.2371,5.2455,5.2415,5.2445,5.2509,5.2545,5.2632,5.2533,5.2643,5.2646,5.2629,5.2808,5.2832,5.2977,5.2749,5.2752,5.2755,0,5.19,5.1969,5.2127,5.2192,5.2226,5.23,5.238,5.245,5.2513,5.2529,5.2584,5.2583,5.2682,5.262,5.2758,5.269,5.2735,5.2759,5.2765,5.2779,5.271,5.2829,5.3024,5.3047,5.2787,5.2785,5.2782,0,5.2013,5.2145,5.2257,5.2292,5.2369,5.2422,5.2457,5.2517,5.2568,5.2637,5.2671,5.2752,5.2797,5.286,5.2881,5.2834,5.3019,5.2958,5.3036,5.3036,5.3079,5.3076,5.3287,5.3103,5.3102,5.3102,5.3101,0,5.2178,5.2276,5.2309,5.2378,5.2488,5.2502,5.261,5.2643,5.2696,5.2772,5.2764,5.2836,5.2859,5.2935,5.2952,5.3065,5.3085,5.3101,5.3105,5.3104,5.3102,5.3136,5.3128,5.3108,5.3106,5.3105,5.3104,0,5.2324,5.235,5.2471,5.2534,5.2552,5.2631,5.2686,5.2753,5.2778,5.2875,5.2898,5.2938,5.3028,5.3054,5.3162,5.3174,5.3307,5.33,5.3285,5.3286,5.3364,5.3357,5.3606,5.364,5.3431,5.3433,5.3434,0,5.2429,5.2504,5.2575,5.2625,5.2662,5.2742,5.2794,5.281,5.2865,5.2943,5.3001,5.3089,5.3161,5.3305,5.3344,5.3427,5.3424,5.3505,5.3437,5.3433,5.3429,5.3425,5.3434,5.352,5.3522,5.3523,5.3525,0,5.2614,5.2623,5.2696,5.2776,5.2837,5.29,5.2961,5.3002,5.3028,5.3089,5.318,5.3235,5.3345,5.3433,5.3517,5.3554,5.3546,5.3545,5.3569,5.357,5.3559,5.3569,5.3324,5.3541,5.3539,5.3538,5.3537,5.3536,5.2745,5.2811,5.2872,5.2955,5.3002,5.3058,5.3125,5.3158,5.3234,5.3324,5.3328,5.3428,5.349,5.3601,5.3642,5.3721,5.3698,5.373,5.3739,5.3748,5.3755,5.3544,5.3736,5.3736,5.3735,5.3735,5.3734,0,5.2932,5.2969,5.3045,5.313,5.3196,5.3178,5.3244,5.3301,5.3388,5.3446,5.3516,5.3621,5.3707,5.3752,5.3838,5.3892,5.389,5.3914,5.3912,5.3921,5.377,5.3743,5.3914,5.3914,5.3914,5.3914,5.3914,5.3914,5.3037,5.3149,5.3165,5.33,5.3338,5.3434,5.3474,5.3527,5.3573,5.369,5.3761,5.3789,5.3843,5.3932,5.401,5.4021,5.4054,5.4082,5.4091,5.395,5.3932,5.3914,5.3889,5.4088,5.4088,5.4236,5.4237,5.4238]}]]